| time (UTC) | temp F | wind direction | speed MPH | gust MPH | rain 1hr in | rain 24hr in | rain mn in | humidity % | barometer mb |
| 20260831103516 | 70 | 0.0 | 0.0 | 0.00 | 1.10 | 0.64 | 98 | 1019.1 | |
| 20260831102516 | 70 | 0.0 | 0.0 | 0.00 | 1.10 | 0.64 | 98 | 1019.0 | |
| 20260831101516 | 70 | 248 | 1.0 | 2.0 | 0.00 | 1.10 | 0.64 | 98 | 1018.9 |
| 20260831100516 | 70 | 0.0 | 2.0 | 0.00 | 1.10 | 0.64 | 98 | 1019.1 | |
| 20260831095516 | 70 | 0.0 | 1.0 | 0.00 | 1.10 | 0.64 | 98 | 1018.9 | |
| 20260831094536 | 70 | 0.0 | 0.0 | 0.00 | 1.10 | 0.64 | 97 | 1018.7 | |
| 20260831093516 | 70 | 0.0 | 0.0 | 0.00 | 1.10 | 0.64 | 97 | 1018.6 | |
| 20260831092517 | 70 | 0.0 | 1.0 | 0.01 | 1.10 | 0.64 | 97 | 1018.6 | |
| 20260831091517 | 69 | 0.0 | 1.0 | 0.01 | 1.10 | 0.64 | 97 | 1018.5 | |
| 20260831090517 | 70 | 0.0 | 1.0 | 0.01 | 1.10 | 0.64 | 97 | 1018.3 | |
| 20260831085517 | 70 | 0.0 | 0.0 | 0.01 | 1.10 | 0.64 | 97 | 1018.2 | |
| 20260831084516 | 70 | 0.0 | 0.0 | 0.01 | 1.10 | 0.64 | 97 | 1018.3 | |
| 20260831083516 | 70 | 0.0 | 0.0 | 0.01 | 1.10 | 0.64 | 97 | 1018.2 | |
| 20260831082516 | 70 | 0.0 | 0.0 | 0.00 | 1.09 | 0.63 | 97 | 1018.4 | |
| 20260831081516 | 70 | 0.0 | 0.0 | 0.00 | 1.09 | 0.63 | 97 | 1018.3 | |
| 20260831080516 | 70 | 0.0 | 0.0 | 0.00 | 1.09 | 0.63 | 97 | 1018.3 | |
| 20260831075516 | 70 | 0.0 | 0.0 | 0.00 | 1.09 | 0.63 | 97 | 1018.5 | |
| 20260831074516 | 70 | 0.0 | 0.0 | 0.00 | 1.09 | 0.63 | 97 | 1018.5 | |
| 20260831073536 | 70 | 0.0 | 0.0 | 0.00 | 1.09 | 0.63 | 97 | 1018.5 | |
| 20260831072516 | 70 | 0.0 | 0.0 | 0.00 | 1.09 | 0.63 | 97 | 1018.4 | |
| 20260831071516 | 71 | 0.0 | 0.0 | 0.00 | 1.09 | 0.63 | 97 | 1018.5 | |
| 20260831070517 | 71 | 0.0 | 0.0 | 0.00 | 1.09 | 0.63 | 97 | 1018.5 | |
| 20260831065516 | 71 | 0.0 | 0.0 | 0.00 | 1.09 | 0.63 | 97 | 1018.4 | |
| 20260831064516 | 71 | 0.0 | 0.0 | 0.00 | 1.09 | 0.63 | 97 | 1018.3 | |
| 20260831063516 | 71 | 0.0 | 0.0 | 0.14 | 1.09 | 0.63 | 97 | 1018.4 | |
| 20260831062516 | 71 | 0.0 | 0.0 | 0.44 | 1.09 | 0.63 | 97 | 1018.4 | |
| 20260831061517 | 71 | 0.0 | 0.0 | 0.61 | 1.09 | 0.63 | 97 | 1018.6 | |
| 20260831060516 | 71 | 0.0 | 0.0 | 0.62 | 1.09 | 0.63 | 97 | 1018.9 | |
| 20260831055516 | 71 | 0.0 | 0.0 | 0.62 | 1.09 | 0.63 | 97 | 1019.0 | |
| 20260831054516 | 72 | 0.0 | 2.0 | 0.62 | 1.09 | 0.63 | 97 | 1019.1 | |
| 20260831053516 | 72 | 270 | 2.0 | 5.0 | 0.48 | 0.95 | 0.49 | 97 | 1019.2 |
| 20260831052516 | 72 | 270 | 1.0 | 5.0 | 0.18 | 0.65 | 0.19 | 96 | 1019.1 |
| 20260831051516 | 72 | 135 | 1.0 | 3.0 | 0.01 | 0.48 | 0.02 | 96 | 1019.0 |
| 20260831050516 | 72 | 0.0 | 3.0 | 0.00 | 0.47 | 0.01 | 96 | 1018.7 | |
| 20260831045516 | 72 | 0.0 | 1.0 | 0.03 | 0.47 | 0.01 | 96 | 1018.5 | |
| 20260831044516 | 72 | 0.0 | 0.0 | 0.25 | 0.47 | 0.01 | 95 | 1018.5 | |
| 20260831043516 | 72 | 0.0 | 0.0 | 0.41 | 0.47 | 0.01 | 95 | 1018.6 | |
| 20260831042516 | 72 | 0.0 | 0.0 | 0.44 | 0.47 | 0.01 | 95 | 1018.7 | |
| 20260831041516 | 72 | 248 | 1.0 | 3.0 | 0.47 | 0.47 | 0.01 | 94 | 1018.8 |
| 20260831040536 | 72 | 338 | 1.0 | 4.0 | 0.47 | 0.47 | 0.01 | 94 | 1018.8 |
| 20260831035537 | 73 | 90 | 2.0 | 4.0 | 0.44 | 0.44 | 0.44 | 94 | 1019.1 |
| 20260831034516 | 74 | 293 | 4.0 | 15.0 | 0.22 | 0.22 | 0.22 | 94 | 1019.6 |
| 20260831033516 | 75 | 0.0 | 3.0 | 0.06 | 0.06 | 0.06 | 94 | 1019.1 | |
| 20260831032516 | 75 | 0.0 | 2.0 | 0.03 | 0.03 | 0.03 | 94 | 1018.9 | |
| 20260831031516 | 75 | 0.0 | 0.0 | 0.00 | 0.00 | 0.00 | 93 | 1018.9 | |
| 20260831030516 | 75 | 0.0 | 0.0 | 0.00 | 0.00 | 0.00 | 93 | 1018.9 | |
| 20260831025517 | 75 | 0.0 | 0.0 | 0.00 | 0.00 | 0.00 | 93 | 1018.7 | |
| 20260831024516 | 75 | 0.0 | 0.0 | 0.00 | 0.00 | 0.00 | 92 | 1018.8 | |
| 20260831023516 | 75 | 0.0 | 0.0 | 0.00 | 0.00 | 0.00 | 92 | 1018.8 | |
| 20260831022536 | 75 | 0.0 | 0.0 | 0.00 | 0.00 | 0.00 | 92 | 1019.0 | |
| 20260831021516 | 75 | 0.0 | 0.0 | 0.00 | 0.00 | 0.00 | 92 | 1018.9 | |
| 20260831020536 | 75 | 0.0 | 0.0 | 0.00 | 0.00 | 0.00 | 91 | 1018.8 | |
| 20260831015516 | 75 | 0.0 | 0.0 | 0.00 | 0.00 | 0.00 | 91 | 1018.8 | |
| 20260831014516 | 76 | 0.0 | 0.0 | 0.00 | 0.00 | 0.00 | 91 | 1019.0 | |
| 20260831013516 | 76 | 0.0 | 0.0 | 0.00 | 0.00 | 0.00 | 90 | 1019.1 | |
| 20260831012516 | 76 | 0.0 | 0.0 | 0.00 | 0.00 | 0.00 | 90 | 1019.2 | |
| 20260831011517 | 76 | 0.0 | 0.0 | 0.00 | 0.00 | 0.00 | 90 | 1019.2 | |
| 20260831010516 | 76 | 0.0 | 0.0 | 0.00 | 0.00 | 0.00 | 90 | 1019.1 | |
| 20260831005516 | 76 | 0.0 | 0.0 | 0.00 | 0.00 | 0.00 | 89 | 1019.1 | |
| 20260831004516 | 76 | 0.0 | 1.0 | 0.00 | 0.00 | 0.00 | 89 | 1018.8 | |
| 20260831003516 | 77 | 0.0 | 0.0 | 0.00 | 0.00 | 0.00 | 88 | 1018.7 | |
| 20260831002536 | 77 | 0.0 | 0.0 | 0.00 | 0.00 | 0.00 | 87 | 1018.6 | |
| 20260831001516 | 78 | 0.0 | 0.0 | 0.00 | 0.00 | 0.00 | 86 | 1018.5 | |
| 20260831000516 | 78 | 0.0 | 0.0 | 0.00 | 0.00 | 0.00 | 85 | 1018.5 | |
| 20260830235516 | 79 | 0.0 | 0.0 | 0.00 | 0.00 | 0.00 | 84 | 1018.5 | |
| 20260830234516 | 80 | 0.0 | 0.0 | 0.00 | 0.00 | 0.00 | 83 | 1018.2 | |
| 20260830233516 | 81 | 0.0 | 0.0 | 0.00 | 0.00 | 0.00 | 81 | 1018.3 | |
| 20260830232516 | 82 | 0.0 | 0.0 | 0.00 | 0.00 | 0.00 | 80 | 1018.3 | |
| 20260830231516 | 82 | 0.0 | 0.0 | 0.00 | 0.00 | 0.00 | 79 | 1018.4 | |
| 20260830230516 | 83 | 0.0 | 1.0 | 0.00 | 0.00 | 0.00 | 77 | 1018.4 | |
| 20260830225515 | 84 | 248 | 1.0 | 3.0 | 0.00 | 0.00 | 0.00 | 76 | 1018.4 |
| 20260830224516 | 84 | 270 | 1.0 | 2.0 | 0.00 | 0.00 | 0.00 | 76 | 1018.3 |
| 20260830223516 | 84 | 270 | 1.0 | 3.0 | 0.00 | 0.00 | 0.00 | 76 | 1018.4 |
| 20260830222516 | 84 | 293 | 2.0 | 3.0 | 0.00 | 0.00 | 0.00 | 75 | 1018.3 |
| 20260830221516 | 84 | 293 | 2.0 | 4.0 | 0.00 | 0.00 | 0.00 | 75 | 1018.3 |
| 20260830220516 | 84 | 293 | 2.0 | 4.0 | 0.00 | 0.00 | 0.00 | 75 | 1018.2 |
| 20260830215516 | 84 | 293 | 2.0 | 6.0 | 0.00 | 0.00 | 0.00 | 74 | 1018.0 |
| 20260830214516 | 85 | 293 | 3.0 | 7.0 | 0.00 | 0.00 | 0.00 | 75 | 1018.1 |
| 20260830213515 | 84 | 315 | 3.0 | 5.0 | 0.00 | 0.00 | 0.00 | 76 | 1018.0 |
| 20260830212516 | 84 | 315 | 3.0 | 6.0 | 0.00 | 0.00 | 0.00 | 77 | 1018.3 |
| 20260830211516 | 83 | 248 | 2.0 | 5.0 | 0.00 | 0.00 | 0.00 | 76 | 1018.1 |
| 20260830210536 | 83 | 248 | 2.0 | 5.0 | 0.00 | 0.00 | 0.00 | 78 | 1018.1 |
| 20260830205516 | 83 | 315 | 2.0 | 8.0 | 0.00 | 0.00 | 0.00 | 77 | 1018.2 |
| 20260830204516 | 82 | 293 | 2.0 | 4.0 | 0.00 | 0.00 | 0.00 | 78 | 1018.2 |
| 20260830203516 | 82 | 315 | 2.0 | 4.0 | 0.00 | 0.00 | 0.00 | 77 | 1018.2 |
| 20260830202515 | 82 | 293 | 1.0 | 3.0 | 0.00 | 0.00 | 0.00 | 76 | 1018.3 |
| 20260830201536 | 82 | 315 | 3.0 | 7.0 | 0.00 | 0.00 | 0.00 | 75 | 1018.5 |
| 20260830200515 | 82 | 315 | 4.0 | 9.0 | 0.00 | 0.00 | 0.00 | 74 | 1018.7 |
| 20260830195516 | 83 | 293 | 3.0 | 10.0 | 0.00 | 0.00 | 0.00 | 75 | 1018.8 |
| 20260830194516 | 83 | 315 | 4.0 | 9.0 | 0.00 | 0.00 | 0.00 | 74 | 1019.0 |
| 20260830193515 | 82 | 293 | 5.0 | 13.0 | 0.00 | 0.00 | 0.00 | 73 | 1019.1 |
| 20260830192516 | 83 | 293 | 5.0 | 10.0 | 0.00 | 0.00 | 0.00 | 74 | 1019.4 |
| 20260830191517 | 83 | 315 | 4.0 | 9.0 | 0.00 | 0.00 | 0.00 | 74 | 1019.6 |
| 20260830190517 | 84 | 293 | 4.0 | 8.0 | 0.00 | 0.00 | 0.00 | 74 | 1019.5 |
| 20260830185517 | 84 | 293 | 4.0 | 10.0 | 0.00 | 0.00 | 0.00 | 74 | 1019.6 |
| 20260830184517 | 84 | 270 | 4.0 | 11.0 | 0.00 | 0.00 | 0.00 | 72 | 1019.7 |
| 20260830183538 | 84 | 270 | 4.0 | 11.0 | 0.00 | 0.00 | 0.00 | 74 | 1019.7 |
| 20260830182517 | 83 | 293 | 3.0 | 8.0 | 0.00 | 0.00 | 0.00 | 77 | 1019.9 |
| 20260830181517 | 84 | 248 | 3.0 | 8.0 | 0.00 | 0.00 | 0.00 | 75 | 1020.0 |
| 20260830180517 | 83 | 315 | 2.0 | 8.0 | 0.00 | 0.00 | 0.00 | 75 | 1020.0 |
| 20260830175537 | 84 | 270 | 4.0 | 10.0 | 0.00 | 0.00 | 0.00 | 74 | 1020.4 |
| 20260830174517 | 83 | 270 | 4.0 | 9.0 | 0.00 | 0.00 | 0.00 | 74 | 1020.5 |
| 20260830173517 | 82 | 315 | 5.0 | 11.0 | 0.00 | 0.00 | 0.00 | 74 | 1020.7 |
| 20260830172517 | 83 | 270 | 4.0 | 14.0 | 0.00 | 0.00 | 0.00 | 74 | 1020.8 |
| 20260830171517 | 84 | 270 | 6.0 | 11.0 | 0.00 | 0.00 | 0.00 | 73 | 1021.0 |
| 20260830170517 | 84 | 315 | 6.0 | 13.0 | 0.00 | 0.00 | 0.00 | 74 | 1021.0 |
| 20260830165517 | 83 | 315 | 6.0 | 13.0 | 0.00 | 0.00 | 0.00 | 76 | 1021.0 |
| 20260830164517 | 82 | 315 | 4.0 | 10.0 | 0.00 | 0.00 | 0.00 | 78 | 1021.0 |
| 20260830163517 | 81 | 293 | 4.0 | 8.0 | 0.00 | 0.00 | 0.00 | 77 | 1021.3 |
| 20260830162517 | 81 | 315 | 5.0 | 10.0 | 0.00 | 0.00 | 0.00 | 75 | 1021.4 |
| 20260830161517 | 82 | 270 | 4.0 | 12.0 | 0.00 | 0.00 | 0.00 | 76 | 1021.3 |
| 20260830160517 | 81 | 315 | 5.0 | 13.0 | 0.00 | 0.00 | 0.00 | 76 | 1021.4 |
| 20260830155537 | 81 | 293 | 5.0 | 11.0 | 0.00 | 0.00 | 0.00 | 78 | 1021.3 |
| 20260830154538 | 80 | 270 | 5.0 | 11.0 | 0.00 | 0.00 | 0.00 | 78 | 1021.3 |
| 20260830153517 | 81 | 248 | 2.0 | 5.0 | 0.00 | 0.00 | 0.00 | 79 | 1021.2 |
| 20260830152517 | 81 | 248 | 2.0 | 7.0 | 0.00 | 0.00 | 0.00 | 78 | 1021.5 |
| 20260830151517 | 80 | 248 | 2.0 | 5.0 | 0.00 | 0.00 | 0.00 | 78 | 1021.6 |
| 20260830150516 | 80 | 270 | 4.0 | 12.0 | 0.00 | 0.00 | 0.00 | 78 | 1021.6 |
| 20260830145517 | 79 | 270 | 2.0 | 7.0 | 0.00 | 0.00 | 0.00 | 80 | 1021.5 |
| 20260830144517 | 79 | 270 | 3.0 | 10.0 | 0.00 | 0.00 | 0.00 | 78 | 1021.5 |
| 20260830143516 | 78 | 270 | 2.0 | 6.0 | 0.00 | 0.00 | 0.00 | 80 | 1021.7 |
| 20260830142518 | 78 | 293 | 2.0 | 8.0 | 0.00 | 0.00 | 0.00 | 82 | 1021.8 |
| 20260830141517 | 77 | 315 | 2.0 | 5.0 | 0.00 | 0.00 | 0.00 | 82 | 1021.9 |
| 20260830140517 | 76 | 270 | 3.0 | 6.0 | 0.00 | 0.00 | 0.00 | 83 | 1022.0 |
| 20260830135517 | 75 | 293 | 1.0 | 4.0 | 0.00 | 0.00 | 0.00 | 87 | 1022.1 |
| 20260830134517 | 73 | 0.0 | 2.0 | 0.00 | 0.00 | 0.00 | 93 | 1022.5 | |
| 20260830133517 | 71 | 293 | 1.0 | 5.0 | 0.00 | 0.00 | 0.00 | 96 | 1022.5 |
| 20260830132516 | 71 | 270 | 1.0 | 3.0 | 0.00 | 0.00 | 0.00 | 97 | 1022.4 |
| 20260830131517 | 69 | 0.0 | 3.0 | 0.00 | 0.00 | 0.00 | 98 | 1022.5 | |
| 20260830130556 | 68 | 0.0 | 2.0 | 0.00 | 0.00 | 0.00 | 98 | 1022.5 | |
| 20260830125536 | 68 | 270 | 1.0 | 3.0 | 0.00 | 0.00 | 0.00 | 98 | 1022.7 |
| 20260830124517 | 67 | 180 | 1.0 | 3.0 | 0.00 | 0.00 | 0.00 | 98 | 1022.7 |
| 20260830123536 | 66 | 180 | 1.0 | 3.0 | 0.00 | 0.00 | 0.00 | 98 | 1022.8 |
| 20260830122517 | 65 | 0.0 | 2.0 | 0.00 | 0.00 | 0.00 | 98 | 1022.9 | |
| 20260830121516 | 64 | 0.0 | 2.0 | 0.00 | 0.00 | 0.00 | 98 | 1022.9 | |
| 20260830120517 | 63 | 0.0 | 0.0 | 0.00 | 0.00 | 0.00 | 98 | 1022.9 | |
| 20260830115516 | 63 | 0.0 | 1.0 | 0.00 | 0.00 | 0.00 | 98 | 1022.9 | |
| 20260830114517 | 62 | 0.0 | 0.0 | 0.00 | 0.00 | 0.00 | 97 | 1022.9 | |
| 20260830113516 | 61 | 0.0 | 0.0 | 0.00 | 0.00 | 0.00 | 97 | 1022.8 | |
| 20260830112536 | 61 | 0.0 | 0.0 | 0.00 | 0.00 | 0.00 | 97 | 1022.9 | |
| 20260830111516 | 60 | 0.0 | 0.0 | 0.00 | 0.00 | 0.00 | 97 | 1022.8 | |
| 20260830110517 | 60 | 0.0 | 1.0 | 0.00 | 0.00 | 0.00 | 97 | 1022.8 | |
| 20260830105516 | 60 | 0.0 | 0.0 | 0.00 | 0.00 | 0.00 | 97 | 1022.9 | |
| 20260830104516 | 59 | 0.0 | 0.0 | 0.00 | 0.00 | 0.00 | 97 | 1023.0 |